When you browse on this site, cookies collect data to enhance your experience and personalize the content and advertising you see.
Visit our Privacy Policy to learn more. By continuing to use the site, you agree to this use of cookies and data.
  • In Switzerland
  • List of Countries
  • For 7 days
  • Water Temperature
  • Satellite Maps
  • Weather Map
  • Weather Widgets
  • user-avatar
    Login

    Hourly Weather Nizhnee Isakovo

    Today, 24 June, Monday

    Time Temperature Precipitation Wind Pressure Humidity
    00:00 +17°C° 0.2 mm 3 mps 745 mmHg 92%
    01:00 +16°C° 0.2 mm 3 mps 745 mmHg 92%
    02:00 +15°C° 0 mm 4 mps 745 mmHg 91%
    03:00 +14°C° 0.3 mm 4 mps 745 mmHg 91%
    04:00 +14°C° 0.3 mm 4 mps 745 mmHg 91%
    05:00 +14°C° 0.3 mm 4 mps 745 mmHg 92%
    06:00 +15°C° 0 mm 4 mps 745 mmHg 87%
    07:00 +17°C° 0 mm 4 mps 746 mmHg 82%
    08:00 +19°C° 0 mm 4 mps 746 mmHg 77%
    09:00 +20°C° 0 mm 4 mps 746 mmHg 73%
    10:00 +21°C° 0 mm 4 mps 746 mmHg 69%
    11:00 +22°C° 0 mm 4 mps 746 mmHg 65%
    12:00 +22°C° 0 mm 4 mps 746 mmHg 65%
    13:00 +23°C° 0 mm 4 mps 746 mmHg 64%
    14:00 +23°C° 0 mm 4 mps 746 mmHg 63%
    15:00 +24°C° 0 mm 3 mps 746 mmHg 64%
    16:00 +24°C° 0 mm 3 mps 746 mmHg 66%
    17:00 +24°C° 0 mm 3 mps 746 mmHg 67%
    18:00 +21°C° 0 mm 2 mps 747 mmHg 69%
    19:00 +19°C° 0 mm 2 mps 747 mmHg 72%
    20:00 +18°C° 0 mm 2 mps 747 mmHg 74%
    21:00 +17°C° 0 mm 2 mps 747 mmHg 76%
    22:00 +16°C° 0 mm 2 mps 748 mmHg 78%
    23:00 +14°C° 0 mm 3 mps 748 mmHg 80%

    Tomorrow, 25 June, Tuesday

    Time Temperature Precipitation Wind Pressure Humidity
    00:00 +14°C° 0 mm 3 mps 748 mmHg 80%
    01:00 +14°C° 0 mm 2 mps 749 mmHg 80%
    02:00 +14°C° 0 mm 2 mps 749 mmHg 80%
    03:00 +14°C° 0 mm 2 mps 749 mmHg 81%
    04:00 +14°C° 0 mm 2 mps 749 mmHg 82%
    05:00 +13°C° 0 mm 3 mps 749 mmHg 82%
    06:00 +16°C° 0 mm 3 mps 750 mmHg 76%
    07:00 +17°C° 0 mm 3 mps 750 mmHg 70%
    08:00 +19°C° 0 mm 3 mps 750 mmHg 65%
    09:00 +20°C° 0 mm 3 mps 750 mmHg 61%
    10:00 +21°C° 0 mm 3 mps 750 mmHg 58%
    11:00 +21°C° 0 mm 3 mps 751 mmHg 55%
    12:00 +22°C° 0 mm 3 mps 751 mmHg 53%
    13:00 +22°C° 0 mm 3 mps 751 mmHg 52%
    14:00 +22°C° 0 mm 3 mps 751 mmHg 51%
    15:00 +22°C° 0 mm 3 mps 750 mmHg 55%
    16:00 +23°C° 0 mm 2 mps 750 mmHg 59%
    17:00 +21°C° 0 mm 2 mps 750 mmHg 64%
    18:00 +19°C° 0 mm 2 mps 750 mmHg 66%
    19:00 +18°C° 0 mm 2 mps 750 mmHg 69%
    20:00 +16°C° 0 mm 2 mps 750 mmHg 72%
    21:00 +15°C° 0 mm 1 mps 750 mmHg 75%
    22:00 +14°C° 0 mm 1 mps 750 mmHg 78%
    23:00 +13°C° 0 mm 1 mps 750 mmHg 81%

    Day after tomorrow, 26 June, Wednesday

    Time Temperature Precipitation Wind Pressure Humidity
    00:00 +13°C° 0 mm 1 mps 750 mmHg 82%
    01:00 +13°C° 0 mm 1 mps 750 mmHg 82%
    02:00 +12°C° 0 mm 1 mps 750 mmHg 83%
    03:00 +13°C° 0 mm 1 mps 750 mmHg 82%
    04:00 +14°C° 0 mm 1 mps 750 mmHg 81%
    05:00 +15°C° 0 mm 1 mps 750 mmHg 81%
    06:00 +16°C° 0 mm 1 mps 750 mmHg 76%
    07:00 +18°C° 0 mm 1 mps 750 mmHg 71%
    08:00 +20°C° 0 mm 1 mps 750 mmHg 67%
    09:00 +20°C° 0 mm 2 mps 749 mmHg 63%
    10:00 +21°C° 0 mm 2 mps 749 mmHg 59%
    11:00 +23°C° 0 mm 2 mps 748 mmHg 56%
    12:00 +22°C° 0 mm 3 mps 748 mmHg 55%
    13:00 +24°C° 0 mm 3 mps 747 mmHg 54%
    14:00 +23°C° 0 mm 4 mps 747 mmHg 54%
    15:00 +24°C° 0.1 mm 3 mps 746 mmHg 59%
    16:00 +22°C° 0.1 mm 3 mps 746 mmHg 64%
    17:00 +22°C° 0.1 mm 3 mps 745 mmHg 69%
    18:00 +19°C° 0 mm 3 mps 745 mmHg 76%
    19:00 +17°C° 0 mm 2 mps 745 mmHg 83%
    20:00 +15°C° 0 mm 2 mps 744 mmHg 90%
    21:00 +15°C° 0 mm 1 mps 744 mmHg 90%
    22:00 +15°C° 0 mm 1 mps 744 mmHg 90%
    23:00 +15°C° 0 mm 1 mps 743 mmHg 90%

    27 June, Thursday

    Time Temperature Precipitation Wind Pressure Humidity
    00:00 +14°C° 0 mm 1 mps 743 mmHg 90%
    01:00 +14°C° 0 mm 1 mps 742 mmHg 90%
    02:00 +14°C° 0 mm 1 mps 742 mmHg 90%
    03:00 +14°C° 0.2 mm 1 mps 741 mmHg 91%
    04:00 +14°C° 0.2 mm 1 mps 741 mmHg 93%
    05:00 +14°C° 0.2 mm 2 mps 740 mmHg 94%
    06:00 +15°C° 0.4 mm 2 mps 739 mmHg 94%
    07:00 +14°C° 0.4 mm 3 mps 739 mmHg 95%
    08:00 +14°C° 0.4 mm 3 mps 738 mmHg 95%
    09:00 +15°C° 0.6 mm 4 mps 737 mmHg 94%
    10:00 +17°C° 0.6 mm 4 mps 736 mmHg 93%
    11:00 +17°C° 0.6 mm 5 mps 736 mmHg 92%
    12:00 +19°C° 1.1 mm 5 mps 735 mmHg 91%
    13:00 +20°C° 1.1 mm 5 mps 734 mmHg 89%
    14:00 +20°C° 1.1 mm 6 mps 733 mmHg 88%
    15:00 +20°C° 1.3 mm 6 mps 732 mmHg 88%
    16:00 +20°C° 1.3 mm 6 mps 731 mmHg 88%
    17:00 +20°C° 1.3 mm 6 mps 730 mmHg 88%
    18:00 +20°C° 1.2 mm 6 mps 729 mmHg 90%
    19:00 +19°C° 1.2 mm 6 mps 728 mmHg 91%
    20:00 +19°C° 1.2 mm 6 mps 727 mmHg 92%
    21:00 +17°C° 1.3 mm 6 mps 726 mmHg 93%
    22:00 +16°C° 1.3 mm 5 mps 726 mmHg 94%
    23:00 +15°C° 1.3 mm 5 mps 725 mmHg 95%

    28 June, Friday

    Time Temperature Precipitation Wind Pressure Humidity
    00:00 +15°C° 0 mm 5 mps 725 mmHg 95%
    01:00 +14°C° 0 mm 5 mps 725 mmHg 95%
    02:00 +14°C° 0 mm 6 mps 724 mmHg 95%
    03:00 +14°C° 0 mm 6 mps 724 mmHg 94%
    04:00 +13°C° 0 mm 6 mps 724 mmHg 93%
    05:00 +13°C° 0 mm 6 mps 724 mmHg 91%
    06:00 +13°C° 0 mm 6 mps 724 mmHg 90%
    07:00 +13°C° 0 mm 6 mps 723 mmHg 89%
    08:00 +13°C° 0 mm 6 mps 723 mmHg 88%
    09:00 +12°C° 0.4 mm 7 mps 723 mmHg 90%
    10:00 +11°C° 0.4 mm 7 mps 723 mmHg 92%
    11:00 +11°C° 0.4 mm 7 mps 723 mmHg 93%
    12:00 +11°C° 1.8 mm 7 mps 722 mmHg 94%
    13:00 +11°C° 1.8 mm 7 mps 722 mmHg 94%
    14:00 +11°C° 1.8 mm 7 mps 722 mmHg 95%
    15:00 +10°C° 1.6 mm 8 mps 722 mmHg 95%
    16:00 +10°C° 1.6 mm 8 mps 722 mmHg 95%
    17:00 +10°C° 1.6 mm 9 mps 722 mmHg 95%
    18:00 +10°C° 0.6 mm 8 mps 722 mmHg 95%
    19:00 +10°C° 0.6 mm 8 mps 722 mmHg 95%
    20:00 +10°C° 0.6 mm 8 mps 722 mmHg 95%
    21:00 +10°C° 0.5 mm 8 mps 722 mmHg 95%
    22:00 +10°C° 0.5 mm 8 mps 722 mmHg 95%
    23:00 +10°C° 0.5 mm 8 mps 722 mmHg 95%

    29 June, Saturday

    Time Temperature Precipitation Wind Pressure Humidity
    00:00 +10°C° 0.3 mm 8 mps 722 mmHg 94%
    01:00 +10°C° 0.3 mm 8 mps 722 mmHg 94%
    02:00 +10°C° 0.3 mm 7 mps 722 mmHg 94%
    03:00 +9°C° 0.5 mm 7 mps 721 mmHg 95%
    04:00 +9°C° 0.5 mm 7 mps 721 mmHg 95%
    05:00 +9°C° 0.5 mm 7 mps 721 mmHg 95%
    06:00 +9°C° 0.5 mm 7 mps 721 mmHg 95%
    07:00 +9°C° 0.5 mm 7 mps 721 mmHg 95%
    08:00 +9°C° 0.5 mm 7 mps 721 mmHg 95%
    09:00 +9°C° 0.7 mm 7 mps 722 mmHg 95%
    10:00 +9°C° 0.7 mm 7 mps 722 mmHg 95%
    11:00 +9°C° 0.7 mm 6 mps 722 mmHg 95%
    12:00 +9°C° 0.8 mm 6 mps 723 mmHg 95%
    13:00 +9°C° 0.8 mm 6 mps 723 mmHg 96%
    14:00 +9°C° 0.8 mm 6 mps 723 mmHg 96%
    15:00 +9°C° 0.6 mm 6 mps 723 mmHg 96%
    16:00 +9°C° 0.6 mm 6 mps 723 mmHg 96%
    17:00 +9°C° 0.6 mm 5 mps 724 mmHg 96%
    18:00 +9°C° 0.5 mm 5 mps 724 mmHg 96%
    19:00 +9°C° 0.5 mm 5 mps 724 mmHg 97%
    20:00 +10°C° 0.5 mm 4 mps 724 mmHg 97%
    21:00 +10°C° 0.6 mm 4 mps 724 mmHg 97%
    22:00 +10°C° 0.6 mm 4 mps 724 mmHg 98%
    23:00 +11°C° 0.6 mm 3 mps 724 mmHg 98%
    Show more